星链-31850 (STARLINK-31850 )

导读

STARLINK-31850是美国SpaceX公司星链(Starlink)星座的一颗低轨互联网卫星,于2024年5月28日由猎鹰9号火箭发射升空。作为星链二代部署阶段的组网卫星,它属于当前主力的V2 Mini构型,承担全球高速低延迟宽带互联网覆盖任务,助力星链扩展低轨星座规模,为偏远地区、移动场景提供卫星互联网接入服务,是SpaceX推进全球卫星互联网组网的重要组成部分。

Basic Information
目录编号:
59903
目录名称:
STARLINK-31850
国际标识:
2024-100U
轨道中心:
EARTH
卫星名称:
星链-31850
卫星全名:
星链-31850 (STARLINK-31850 )
卫星状态:
在轨 (已飞行829 天)
发射日期:
2024-05-28 UTC
国别 :
美国 (US)
星等 :
--
Orbit Information
数据来源 国际轨道数据 AOE轨道数据
星历时间 2026-09-03T16:50:09+0800
21小时前
查看轨道信息
2026-09-03T23:00:00+0800
15小时前
查看轨道信息
半长轴 6861.41km 6861.142km
偏心率 0.0000465 0.0001107
轨道倾角 43.001° 42.998°
近地点辐角 332.862° 248.023°
升交点赤经 201.678° 200.227°
平近点角 27.221° 86.203°
近地点 482.953km 482.245km
远地点 483.593km 483.765km
周期 94.271分钟 94.266分钟
每日圈数 15.275055 15.27595
Detailed Information
固有亮度:
5
最大亮度:
1.5
卫星平台:
Starlink v2.0 mini
覆盖范围:
全球
运营商:
太空探索技术公司
运营商所在国:
美国
制造商(研发单位):
太空探索技术公司
制造商所在国:
美国
使用方式:
暂无
Satellite Introduction
星链(Starlink)计划是由太空探索技术公司(SpaceX)提出的一个巨型低轨卫星互联网星座项目,计划在2019年至2024年间在太空搭建由约1.2万颗卫星组成的“星链”网络,其中1584颗将部署在地球上空550千米处的近地轨道,并从2020年开始工作。该卫星仍在工作。
2D Orbit Map
3D Orbit Map
Orbit Altitude Analysis Chart
Orbit Inclination Analysis Chart
Orbit Comprehensive Analysis Chart
View Comprehensive Chart